Regional Weather Roundup
Issued by NWS

Home | Current Version | Previous Version | Graphics & Text | Print | Product List | Glossary On
Versions: 1 2 3 4 5 6 7 8 9 10 11 12 13 14 15 16 17 18 19 20 21 22 23 24 25 26 27
000
ASUS45 KCYS 240910
RWRWY

WYOMING REGIONAL WEATHER ROUNDUP
NATIONAL WEATHER SERVICE CHEYENNE WY
200 AM MST FRI NOV 24 2017

NOTE:  "FAIR" INDICATES FEW OR NO CLOUDS BELOW 12,000 FEET
WITH NO SIGNIFICANT WEATHER AND/OR OBSTRUCTIONS TO VISIBILITY.

WYZ001-241000-
YELLOWSTONE NATIONAL PARK

CITY           SKY/WX    TMP DP  RH WIND       PRES   REMARKS
LK YELLOWSTONE   N/A     39  33  79 W9G20     29.89F WCI  33
W YELLOWSTONE  NOT AVBL

$$
WYZ002>013-054>058-071-098>099-241000-
NORTHERN WYOMING

CITY           SKY/WX    TMP DP  RH WIND       PRES   REMARKS
JACKSON        CLOUDY    50  33  52 SW26G41     N/A
CODY           LGT RAIN  53  35  50 SW8       29.70S
GREYBULL       FAIR      38  32  79 SE6       29.68F WCI  33
WORLAND        FAIR      49  35  58 SW15      29.69F
SHERIDAN       FAIR      63  30  28 NW13G22   29.57F
BUFFALO        FAIR      57  26  30 S13G18    29.64F
GILLETTE       FAIR      56  32  40 SW23G31   29.60F
HULETT         FAIR      52  32  46 SW10      29.62S
NEWCASTLE      FAIR      41  30  65 E6        29.68F

$$
WYZ014>020-022>026-101>103-241000-
CENTRAL WYOMING

CITY           SKY/WX    TMP DP  RH WIND       PRES   REMARKS
BIG PINEY      FAIR      42  32  67 W14G20    29.98F
PINEDALE       CLOUDY    36  34  93 CALM      29.99F
DUBOIS         DRIZZLE   43  32  65 NW15G22   29.85F
LANDER         FAIR      55  29  36 CALM      29.83F
RIVERTON       FAIR      51  29  42 SW16      29.82F
CASPER         FAIR      50  34  54 SW16      29.81F
DOUGLAS        FAIR      57  35  43 W28G37    29.75F

$$
WYZ021-027>030-104>119-241000-
SOUTHERN WYOMING

CITY           SKY/WX    TMP DP  RH WIND       PRES   REMARKS
EVANSTON       FAIR      47  31  53 SW14      30.04F
KEMMERER       FAIR      37  32  81 W12       30.03F WCI  30
FORT BRIDGER   FAIR      47  32  55 W16G22    30.06F
ROCK SPRINGS   MOCLDY    43  34  70 SW5       30.03F
DIXON          FAIR      47  29  49 S18       30.07F
RAWLINS        LGT RAIN  44  33  65 SW28G35   29.98R
SARATOGA       PTSUNNY   43  32  65 SW6       30.03F
LARAMIE        MOCLDY    45  30  55 S15       29.97F
CHEYENNE       FAIR      55  30  38 VRB6      29.88F
TORRINGTON     FAIR      60  36  40 W20G28    29.75R
PINE BLUFFS    FAIR      55  30  38 SW12      29.85F

$$




USA.gov is the U.S. government's official web portal to all federal, state and local government web resources and services.